TimeMDT,TemperatureF,Dew PointF,Humidity,Sea Level PressureIn,VisibilityMPH,Wind Direction,Wind SpeedMPH,Gust SpeedMPH,PrecipitationIn,Events,Conditions,WindDirDegrees,DateUTC
12:34 AM,41.0,35.6,81,30.20,10.0,South,15.0,-,N/A,,Overcast,190,2012-10-06 06:34:00
12:48 AM,37.4,35.6,93,30.20,5.0,SSW,16.1,-,N/A,,Overcast,200,2012-10-06 06:48:00
12:53 AM,37.9,35.1,89,30.10,3.0,SSW,15.0,-,N/A,,Overcast,200,2012-10-06 06:53:00
1:03 AM,37.4,35.6,93,30.20,2.0,South,18.4,-,N/A,,Overcast,190,2012-10-06 07:03:00
1:15 AM,37.4,35.6,93,30.21,2.0,South,13.8,-,N/A,,Overcast,190,2012-10-06 07:15:00
1:53 AM,36.0,35.1,97,30.08,3.0,South,16.1,-,N/A,,Overcast,190,2012-10-06 07:53:00
2:27 AM,35.6,33.8,93,30.20,7.0,South,13.8,-,N/A,,Overcast,180,2012-10-06 08:27:00
2:53 AM,35.1,33.1,92,30.07,10.0,South,16.1,-,N/A,,Overcast,190,2012-10-06 08:53:00
3:53 AM,34.0,33.1,96,30.05,3.0,South,13.8,-,N/A,,Overcast,190,2012-10-06 09:53:00
4:01 AM,33.8,33.8,100,30.17,2.5,South,15.0,-,N/A,,Overcast,190,2012-10-06 10:01:00
4:26 AM,33.8,33.8,100,30.17,2.5,South,12.7,-,N/A,,Overcast,190,2012-10-06 10:26:00
4:53 AM,34.0,33.1,96,30.06,2.0,SSW,13.8,-,N/A,,Overcast,200,2012-10-06 10:53:00
5:09 AM,33.8,33.8,100,30.17,1.5,South,11.5,-,0.00,Rain,Light Rain,190,2012-10-06 11:09:00
5:44 AM,33.8,33.8,100,30.18,1.5,South,9.2,-,0.00,Rain,Light Rain,190,2012-10-06 11:44:00
5:53 AM,34.0,33.1,96,30.09,1.5,South,9.2,-,0.01,Rain,Light Rain,170,2012-10-06 11:53:00
6:40 AM,33.8,33.8,100,30.19,2.0,South,8.1,-,0.00,,Overcast,190,2012-10-06 12:40:00
6:53 AM,34.0,33.1,96,30.10,1.8,South,8.1,-,0.01,Rain,Light Rain,180,2012-10-06 12:53:00
7:16 AM,33.8,33.8,100,30.18,2.0,South,8.1,-,0.00,Rain,Light Rain,180,2012-10-06 13:16:00
7:24 AM,33.8,33.8,100,30.17,1.8,South,10.4,-,0.01,Rain,Light Rain,190,2012-10-06 13:24:00
7:53 AM,34.0,34.0,100,30.12,1.0,South,10.4,-,0.01,Rain,Light Rain,190,2012-10-06 13:53:00
8:27 AM,33.8,33.8,100,30.18,1.0,SSW,10.4,-,0.01,Rain,Light Rain,200,2012-10-06 14:27:00
8:53 AM,35.1,34.0,96,30.14,1.2,South,9.2,-,0.01,Rain,Light Rain,180,2012-10-06 14:53:00
9:53 AM,35.1,34.0,96,30.14,1.2,SSW,9.2,-,0.01,,Overcast,200,2012-10-06 15:53:00
10:25 AM,35.6,33.8,93,30.20,1.2,South,8.1,-,0.00,Rain,Light Rain,190,2012-10-06 16:25:00
10:53 AM,35.1,35.1,100,30.16,1.2,South,6.9,-,0.01,Rain,Light Rain,180,2012-10-06 16:53:00
11:02 AM,35.6,35.6,100,30.21,1.2,South,6.9,-,0.00,Rain,Light Rain,180,2012-10-06 17:02:00
11:27 AM,35.6,35.6,100,30.20,1.8,SSW,4.6,-,0.00,,Overcast,200,2012-10-06 17:27:00
11:38 AM,35.6,33.8,93,30.20,1.5,South,8.1,-,0.00,Rain,Light Rain,170,2012-10-06 17:38:00
11:53 AM,36.0,35.1,97,30.15,1.8,South,5.8,-,0.01,,Overcast,180,2012-10-06 17:53:00
12:09 PM,35.6,35.6,100,30.20,2.0,South,5.8,-,N/A,,Overcast,180,2012-10-06 18:09:00
12:22 PM,37.4,35.6,93,30.19,3.0,South,5.8,-,N/A,,Overcast,170,2012-10-06 18:22:00
12:53 PM,37.0,35.1,93,30.16,5.0,SSE,5.8,-,N/A,,Overcast,160,2012-10-06 18:53:00
1:50 PM,39.2,35.6,87,30.17,10.0,SSW,5.8,-,N/A,,Overcast,200,2012-10-06 19:50:00
1:53 PM,39.0,36.0,89,30.14,10.0,SSW,5.8,-,N/A,,Overcast,210,2012-10-06 19:53:00
2:00 PM,39.2,35.6,87,30.17,10.0,SSW,5.8,-,N/A,,Overcast,200,2012-10-06 20:00:00
2:09 PM,39.2,35.6,87,30.17,10.0,SSW,4.6,-,N/A,,Overcast,200,2012-10-06 20:09:00
2:53 PM,39.0,35.1,86,30.14,10.0,West,5.8,-,N/A,,Overcast,270,2012-10-06 20:53:00
3:14 PM,39.2,33.8,81,30.17,10.0,Calm,Calm,-,N/A,,Overcast,0,2012-10-06 21:14:00
3:53 PM,39.9,35.1,83,30.15,10.0,SSW,5.8,-,N/A,,Overcast,210,2012-10-06 21:53:00
4:53 PM,39.0,35.1,86,30.15,10.0,SW,4.6,-,0.00,Rain,Light Rain,220,2012-10-06 22:53:00
5:06 PM,39.2,35.6,87,30.18,2.5,SSW,4.6,-,0.00,Rain,Light Rain,200,2012-10-06 23:06:00
5:15 PM,39.2,35.6,87,30.18,6.0,SW,3.5,-,0.00,Rain,Light Rain,220,2012-10-06 23:15:00
5:35 PM,39.2,35.6,87,30.19,10.0,SSW,4.6,-,0.00,,Overcast,200,2012-10-06 23:35:00
5:53 PM,39.0,36.0,89,30.17,10.0,Calm,Calm,-,0.00,,Overcast,0,2012-10-06 23:53:00
6:17 PM,39.2,35.6,87,30.21,10.0,Calm,Calm,-,N/A,,Overcast,0,2012-10-07 00:17:00
6:43 PM,39.2,32.0,75,30.22,10.0,NE,11.5,-,N/A,,Overcast,40,2012-10-07 00:43:00
6:53 PM,37.9,33.1,83,30.21,10.0,NE,13.8,-,N/A,,Overcast,50,2012-10-07 00:53:00
7:11 PM,37.4,32.0,81,30.22,10.0,NE,12.7,-,N/A,,Overcast,40,2012-10-07 01:11:00
7:53 PM,37.9,30.9,76,30.23,10.0,NE,13.8,-,N/A,,Overcast,50,2012-10-07 01:53:00
8:09 PM,37.4,30.2,75,30.24,10.0,NE,9.2,-,N/A,,Overcast,40,2012-10-07 02:09:00
8:53 PM,37.0,30.9,79,30.24,10.0,NE,12.7,-,N/A,,Overcast,50,2012-10-07 02:53:00
9:53 PM,37.0,30.0,76,30.24,10.0,ENE,4.6,-,N/A,,Overcast,70,2012-10-07 03:53:00
10:48 PM,37.4,28.4,70,30.25,10.0,Calm,Calm,-,N/A,,Overcast,0,2012-10-07 04:48:00
10:53 PM,37.0,28.9,73,30.23,10.0,ESE,3.5,-,N/A,,Overcast,110,2012-10-07 04:53:00
11:53 PM,37.0,30.9,79,30.22,10.0,SE,3.5,-,N/A,,Overcast,130,2012-10-07 05:53:00